Location name: Nyabisindu(Mwogo) | Identifier : 70014 | Type : Hydrology Station

On the right bank downstream of the Nyabisindu bridge the station consists of old staff gauges the banks are not accessible because of the papyruses

  • Parameter : Stage
  • Unit : m
  • Start time : 1972-03-06T08:00:00.0000000+02:00
  • End time : 2014-08-11T00:00:00.0000000+02:00
  • Parameter : Stage
  • Unit : m
  • Start time : 2016-03-01T08:00:00.0000000+02:00
  • End time : 2017-03-31T17:00:00.0000000+02:00
Date Parameter Unit Value
2023-08-21T08:30:00.0000000+02:00 Discharge m^3/s 1.496
2023-08-21T08:30:00.0000000+02:00 Stage m 0.49
2023-04-18T10:30:00.0000000+02:00 Stage m 0.7
2023-04-18T10:30:00.0000000+02:00 Discharge m^3/s 11.269
1970-06-03T00:00:00.0000000+02:00 Discharge m^3/s 4.269999981
1970-06-03T00:00:00.0000000+02:00 Stage m 0.860000014
1970-06-26T00:00:00.0000000+02:00 Discharge m^3/s 2.559999943
1970-06-26T00:00:00.0000000+02:00 Stage m 0.800000012
1970-07-23T00:00:00.0000000+02:00 Discharge m^3/s 2.559999943
1970-07-23T00:00:00.0000000+02:00 Stage m 0.769999981
1970-08-20T00:00:00.0000000+02:00 Discharge m^3/s 2.440000057
1970-08-20T00:00:00.0000000+02:00 Stage m 0.75999999
1970-09-17T00:00:00.0000000+02:00 Discharge m^3/s 3.869999886
1970-09-17T00:00:00.0000000+02:00 Stage m 0.639999986
1970-09-17T00:00:00.0000000+02:00 Discharge m^3/s 2.819999933
1970-09-17T00:00:00.0000000+02:00 Stage m 0.779999971
1973-04-26T00:00:00.0000000+02:00 Discharge m^3/s 5.940000057
1973-04-26T00:00:00.0000000+02:00 Stage m 1.039999962
1973-07-20T00:00:00.0000000+02:00 Discharge m^3/s 1.99000001
1973-07-20T00:00:00.0000000+02:00 Stage m 0.709999979
1974-03-18T00:00:00.0000000+02:00 Discharge m^3/s 2.25
1974-03-18T00:00:00.0000000+02:00 Stage m 0.629999995
1974-04-09T00:00:00.0000000+02:00 Discharge m^3/s 10.34000015
1974-04-09T00:00:00.0000000+02:00 Stage m 1.559999943
1974-05-21T00:00:00.0000000+02:00 Discharge m^3/s 5.53000021
1974-05-21T00:00:00.0000000+02:00 Stage m 1.070000052
1975-03-25T00:00:00.0000000+02:00 Discharge m^3/s 3.430000067
1975-03-25T00:00:00.0000000+02:00 Stage m 1
1975-03-26T00:00:00.0000000+02:00 Discharge m^3/s 2.700000048
1975-03-26T00:00:00.0000000+02:00 Stage m 0.939999998
1975-03-27T00:00:00.0000000+02:00 Discharge m^3/s 2.660000086
1975-03-27T00:00:00.0000000+02:00 Stage m 0.910000026
1975-11-26T00:00:00.0000000+02:00 Discharge m^3/s 2.400000095
1975-11-26T00:00:00.0000000+02:00 Stage m 0.889999986
1978-04-26T00:00:00.0000000+02:00 Discharge m^3/s 0.486000001
1978-04-26T00:00:00.0000000+02:00 Stage m 0.479999989
1978-05-02T00:00:00.0000000+02:00 Discharge m^3/s 11.55000019
1978-05-02T00:00:00.0000000+02:00 Stage m 2.549999952
1980-01-30T00:00:00.0000000+02:00 Discharge m^3/s 0.386999995
1980-01-30T00:00:00.0000000+02:00 Stage m 0.300000012
1985-07-22T00:00:00.0000000+02:00 Discharge m^3/s 2.25999999
1985-07-22T00:00:00.0000000+02:00 Stage m 0.699999988
1986-06-06T00:00:00.0000000+02:00 Discharge m^3/s 3.339999914
1986-06-06T00:00:00.0000000+02:00 Stage m 0.779999971
1987-09-01T00:00:00.0000000+02:00 Discharge m^3/s 2.140000105
1987-09-01T00:00:00.0000000+02:00 Stage m 0.670000017
1989-07-24T00:00:00.0000000+02:00 Discharge m^3/s 3.299999952
1989-07-24T00:00:00.0000000+02:00 Stage m 0.980000019
1989-09-21T00:00:00.0000000+02:00 Discharge m^3/s 3.730000019
1989-09-21T00:00:00.0000000+02:00 Stage m 1.220000029
1989-10-20T00:00:00.0000000+02:00 Discharge m^3/s 4.579999924
1989-10-20T00:00:00.0000000+02:00 Stage m 1.25999999
1990-01-23T00:00:00.0000000+02:00 Discharge m^3/s 3.140000105
1990-01-23T00:00:00.0000000+02:00 Stage m 1.049999952
1990-03-21T00:00:00.0000000+02:00 Discharge m^3/s 7.840000153
1990-03-21T00:00:00.0000000+02:00 Stage m 1.720000029
1990-06-20T00:00:00.0000000+02:00 Discharge m^3/s 3.15199995
1990-06-20T00:00:00.0000000+02:00 Stage m 1.049999952
1990-07-26T00:00:00.0000000+02:00 Discharge m^3/s 2.84800005
1990-07-26T00:00:00.0000000+02:00 Stage m 1.019999981
1990-12-05T00:00:00.0000000+02:00 Discharge m^3/s 5.039999962
1990-12-05T00:00:00.0000000+02:00 Stage m 1.409999967
1992-02-14T00:00:00.0000000+02:00 Discharge m^3/s 3.24000001
1992-02-14T00:00:00.0000000+02:00 Stage m 1.24000001
1992-03-04T00:00:00.0000000+02:00 Discharge m^3/s 3.779999971
1992-03-04T00:00:00.0000000+02:00 Stage m 1.370000005
1992-08-28T00:00:00.0000000+02:00 Discharge m^3/s 2.079999924
1992-08-28T00:00:00.0000000+02:00 Stage m 1.159999967
1992-10-16T00:00:00.0000000+02:00 Discharge m^3/s 3.960000038
1992-10-16T00:00:00.0000000+02:00 Stage m 1.549999952
1996-11-05T00:00:00.0000000+02:00 Discharge m^3/s 1.827999949
1996-11-05T00:00:00.0000000+02:00 Stage m 0
2000-04-14T00:00:00.0000000+02:00 Discharge m^3/s 2.480000019
2000-04-14T00:00:00.0000000+02:00 Stage m 0.600000024
2012-11-12T00:00:00.0000000+02:00 Discharge m^3/s 4.6
2012-11-12T00:00:00.0000000+02:00 Stage m 1.8
2014-06-13T00:00:00.0000000+02:00 Discharge m^3/s 2.2
2014-06-13T00:00:00.0000000+02:00 Stage m 1.25
2017-08-28T00:00:00.0000000+02:00 Discharge m^3/s 1.16
2017-08-28T00:00:00.0000000+02:00 Stage m 0.67
2018-05-21T11:18:00.0000000+02:00 Discharge m^3/s 7.123
2018-05-21T11:18:00.0000000+02:00 Stage m 0.91
2018-09-04T08:38:00.0000000+02:00 Discharge m^3/s 2.39
2018-09-04T08:38:00.0000000+02:00 Stage m 0.68
2018-12-17T10:41:00.0000000+02:00 Discharge m^3/s 4.05
2018-12-17T10:41:00.0000000+02:00 Stage m 0.71
2019-09-10T08:12:00.0000000+02:00 Discharge m^3/s 1.6
2019-09-10T08:12:00.0000000+02:00 Stage m 0.25
2020-10-28T09:39:00.0000000+02:00 Discharge m^3/s 4.737
2020-10-28T09:39:00.0000000+02:00 Stage m 1.61
2021-11-30T10:00:00.0000000+02:00 Discharge m^3/s 4.9